Year,Month,Day,Hour,Minute,Value (Times are PST for temperature in C)
2011,02,20,08,15,-2.70
2011,02,20,08,16,-2.70
2011,02,20,08,17,-2.70
2011,02,20,08,18,-2.60
2011,02,20,08,19,-2.60
2011,02,20,08,20,-2.60
2011,02,20,08,21,-2.60
2011,02,20,08,22,-2.50
2011,02,20,08,23,-2.50
2011,02,20,08,24,-2.50
2011,02,20,08,25,-2.40
2011,02,20,08,26,-2.40
2011,02,20,08,27,-2.40
2011,02,20,08,28,-2.40
2011,02,20,08,29,-2.30
2011,02,20,08,30,-2.30
2011,02,20,08,31,-2.30
2011,02,20,08,32,-2.20
2011,02,20,08,33,-2.20
2011,02,20,08,34,-2.20
2011,02,20,08,35,-2.20
2011,02,20,08,36,-2.20
2011,02,20,08,37,-2.10
2011,02,20,08,38,-2.10
2011,02,20,08,39,-2.10
2011,02,20,08,40,-2.10
2011,02,20,08,41,-2.10
2011,02,20,08,42,-2.10
2011,02,20,08,43,-2.10
2011,02,20,08,44,-2.00
2011,02,20,08,45,-2.00
2011,02,20,08,46,-2.00
2011,02,20,08,47,-2.00
2011,02,20,08,48,-2.00
2011,02,20,08,49,-2.00
2011,02,20,08,50,-2.00
2011,02,20,08,51,-2.00
2011,02,20,08,52,-2.00
2011,02,20,08,53,-1.90
2011,02,20,08,54,-1.90
2011,02,20,08,55,-1.90
2011,02,20,08,56,-1.80
2011,02,20,08,57,-1.80
2011,02,20,08,58,-1.80
2011,02,20,08,59,-1.70
2011,02,20,09,00,-1.70
2011,02,20,09,01,-1.60
2011,02,20,09,02,-1.60
2011,02,20,09,03,-1.60
2011,02,20,09,04,-1.50
2011,02,20,09,05,-1.50
2011,02,20,09,06,-1.40
2011,02,20,09,07,-1.40
2011,02,20,09,08,-1.30
2011,02,20,09,09,-1.30
2011,02,20,09,10,-1.30
2011,02,20,09,11,-1.20
2011,02,20,09,12,-1.10
2011,02,20,09,13,-1.00
2011,02,20,09,14,-0.90
2011,02,20,09,15,-0.80
2011,02,20,09,16,-0.70
2011,02,20,09,17,-0.60
2011,02,20,09,18,-0.60
2011,02,20,09,19,-0.50
2011,02,20,09,20,-0.40
2011,02,20,09,21,-0.40
2011,02,20,09,22,-0.40
2011,02,20,09,23,-0.30
2011,02,20,09,24,-0.30
2011,02,20,09,25,-0.20
2011,02,20,09,26,-0.20
2011,02,20,09,27,-0.10
2011,02,20,09,28,0.00
2011,02,20,09,29,0.10
2011,02,20,09,30,0.20
2011,02,20,09,31,0.20
2011,02,20,09,32,0.30
2011,02,20,09,33,0.40
2011,02,20,09,34,0.50
2011,02,20,09,35,0.50
2011,02,20,09,36,0.60
2011,02,20,09,37,0.70
2011,02,20,09,38,0.80
2011,02,20,09,39,0.80
2011,02,20,09,40,0.90
2011,02,20,09,41,0.90
2011,02,20,09,42,1.00
2011,02,20,09,43,1.10
2011,02,20,09,44,1.10
2011,02,20,09,45,1.20
2011,02,20,09,46,1.20
2011,02,20,09,47,1.30
2011,02,20,09,48,1.30
2011,02,20,09,49,1.30
2011,02,20,09,50,1.30
2011,02,20,09,51,1.30
2011,02,20,09,52,1.30
2011,02,20,09,53,1.30
2011,02,20,09,54,1.30
2011,02,20,09,55,1.30
2011,02,20,09,56,1.30
2011,02,20,09,57,1.40
2011,02,20,09,58,1.40
2011,02,20,09,59,1.40
2011,02,20,10,00,1.40
2011,02,20,10,01,1.40
2011,02,20,10,02,1.40
2011,02,20,10,03,1.50
2011,02,20,10,04,1.50
2011,02,20,10,05,1.50
2011,02,20,10,06,1.50
2011,02,20,10,07,1.50
2011,02,20,10,08,1.60
2011,02,20,10,09,1.60
2011,02,20,10,10,1.60
2011,02,20,10,11,1.60
2011,02,20,10,12,1.60
2011,02,20,10,13,1.60
2011,02,20,10,14,1.60
2011,02,20,10,15,1.70
2011,02,20,10,16,1.70
2011,02,20,10,17,1.70
2011,02,20,10,18,1.70
2011,02,20,10,19,1.70
2011,02,20,10,20,1.70
2011,02,20,10,21,1.70
2011,02,20,10,22,1.80
2011,02,20,10,23,1.80
2011,02,20,10,24,1.80
2011,02,20,10,25,1.80
2011,02,20,10,26,1.80
2011,02,20,10,27,1.80
2011,02,20,10,28,1.80
2011,02,20,10,29,1.80
2011,02,20,10,30,1.80
2011,02,20,10,31,1.90
2011,02,20,10,32,1.90
2011,02,20,10,33,1.90
2011,02,20,10,34,1.90
2011,02,20,10,35,1.90
2011,02,20,10,36,1.90
2011,02,20,10,37,1.90
2011,02,20,10,38,1.90
2011,02,20,10,39,2.00
2011,02,20,10,40,2.00
2011,02,20,10,41,2.00
2011,02,20,10,42,2.00
2011,02,20,10,43,2.10
2011,02,20,10,44,2.10
2011,02,20,10,45,2.10
2011,02,20,10,46,2.10
2011,02,20,10,47,2.10
2011,02,20,10,48,2.20
2011,02,20,10,49,2.20
2011,02,20,10,50,2.20
2011,02,20,10,51,2.20
2011,02,20,10,52,2.20
2011,02,20,10,53,2.20
2011,02,20,10,54,2.20
2011,02,20,10,55,2.20
2011,02,20,10,56,2.20
2011,02,20,10,57,2.30
2011,02,20,10,58,2.30
2011,02,20,10,59,2.30
2011,02,20,11,00,2.30
2011,02,20,11,01,2.30
2011,02,20,11,02,2.40
2011,02,20,11,03,2.40
2011,02,20,11,04,2.50
2011,02,20,11,05,2.50
2011,02,20,11,06,2.60
2011,02,20,11,07,2.60
2011,02,20,11,08,2.70
2011,02,20,11,09,2.70
2011,02,20,11,10,2.70
2011,02,20,11,11,2.70
2011,02,20,11,12,2.80
2011,02,20,11,13,2.70
2011,02,20,11,14,2.70
2011,02,20,11,15,2.70
2011,02,20,11,16,2.70
2011,02,20,11,17,2.70
2011,02,20,11,18,2.70
2011,02,20,11,19,2.70
2011,02,20,11,20,2.70
2011,02,20,11,21,2.80
2011,02,20,11,22,2.80
2011,02,20,11,23,2.90
2011,02,20,11,24,2.90
2011,02,20,11,25,3.00
2011,02,20,11,26,3.00
2011,02,20,11,27,3.10
2011,02,20,11,28,3.20
2011,02,20,11,29,3.20
2011,02,20,11,30,3.30
2011,02,20,11,31,3.50
2011,02,20,11,32,3.60
2011,02,20,11,33,3.70
2011,02,20,11,34,3.80
2011,02,20,11,35,3.80
2011,02,20,11,36,3.90
2011,02,20,11,37,3.90
2011,02,20,11,38,3.90
2011,02,20,11,39,3.80
2011,02,20,11,40,3.80
2011,02,20,11,41,3.80
2011,02,20,11,42,3.70
2011,02,20,11,43,3.70
2011,02,20,11,44,3.70
2011,02,20,11,45,3.70
2011,02,20,11,46,3.70
2011,02,20,11,47,3.80
2011,02,20,11,48,3.80
2011,02,20,11,49,3.80
2011,02,20,11,50,3.80
2011,02,20,11,51,3.80
2011,02,20,11,52,3.80
2011,02,20,11,53,3.80
2011,02,20,11,54,3.90
2011,02,20,11,55,3.90
2011,02,20,11,56,3.90
2011,02,20,11,57,3.90
2011,02,20,11,58,4.00
2011,02,20,11,59,4.00
2011,02,20,12,00,4.00
2011,02,20,12,01,4.10
2011,02,20,12,02,4.10
2011,02,20,12,03,4.10
2011,02,20,12,04,4.10
2011,02,20,12,05,4.20
2011,02,20,12,06,4.20
2011,02,20,12,07,4.30
2011,02,20,12,08,4.30
2011,02,20,12,09,4.40
2011,02,20,12,10,4.50
2011,02,20,12,11,4.60
2011,02,20,12,12,4.70
2011,02,20,12,13,4.70
2011,02,20,12,14,4.70
2011,02,20,12,15,4.70
2011,02,20,12,16,4.80
2011,02,20,12,17,4.80
2011,02,20,12,18,4.80
2011,02,20,12,19,4.90
2011,02,20,12,20,5.00
2011,02,20,12,21,5.00
2011,02,20,12,22,5.10
2011,02,20,12,23,5.10
2011,02,20,12,24,5.00
2011,02,20,12,25,4.90
2011,02,20,12,26,4.90
2011,02,20,12,27,4.90
2011,02,20,12,28,4.80
2011,02,20,12,29,4.70
2011,02,20,12,30,4.70
2011,02,20,12,31,4.70
2011,02,20,12,32,4.70
2011,02,20,12,33,4.70
2011,02,20,12,34,4.60
2011,02,20,12,35,4.60
2011,02,20,12,36,4.60
2011,02,20,12,37,4.60
2011,02,20,12,38,4.60
2011,02,20,12,39,4.60
2011,02,20,12,40,4.60
2011,02,20,12,41,4.60
2011,02,20,12,42,4.60
2011,02,20,12,43,4.60
2011,02,20,12,44,4.60
2011,02,20,12,45,4.60
2011,02,20,12,46,4.50
2011,02,20,12,47,4.50
2011,02,20,12,48,4.50
2011,02,20,12,49,4.50
2011,02,20,12,50,4.50
2011,02,20,12,51,4.50
2011,02,20,12,52,4.50
2011,02,20,12,53,4.50
2011,02,20,12,54,4.50
2011,02,20,12,55,4.40
2011,02,20,12,56,4.40
2011,02,20,12,57,4.40
2011,02,20,12,58,4.40
2011,02,20,12,59,4.30
2011,02,20,13,00,4.30
2011,02,20,13,01,4.30
2011,02,20,13,02,4.30
2011,02,20,13,03,4.30
2011,02,20,13,04,4.40
2011,02,20,13,05,4.40
2011,02,20,13,06,4.40
2011,02,20,13,07,4.40
2011,02,20,13,08,4.40
2011,02,20,13,09,4.40
2011,02,20,13,10,4.40
2011,02,20,13,11,4.40
2011,02,20,13,12,4.40
2011,02,20,13,13,4.40
2011,02,20,13,14,4.40
2011,02,20,13,15,4.50
2011,02,20,13,16,4.50
2011,02,20,13,17,4.50
2011,02,20,13,18,4.50
2011,02,20,13,19,4.50
2011,02,20,13,20,4.50
2011,02,20,13,21,4.50
2011,02,20,13,22,4.50
2011,02,20,13,23,4.50
2011,02,20,13,24,4.50
2011,02,20,13,25,4.60
2011,02,20,13,26,4.60
2011,02,20,13,27,4.60
2011,02,20,13,28,4.60
2011,02,20,13,29,4.60
2011,02,20,13,30,4.50
2011,02,20,13,31,4.50
2011,02,20,13,32,4.40
2011,02,20,13,33,4.40
2011,02,20,13,34,4.40
2011,02,20,13,35,4.40
2011,02,20,13,36,4.40
2011,02,20,13,37,4.40
2011,02,20,13,38,4.40
2011,02,20,13,39,4.40
2011,02,20,13,40,4.40
2011,02,20,13,41,4.40
2011,02,20,13,42,4.40
2011,02,20,13,43,4.40
2011,02,20,13,44,4.50
2011,02,20,13,45,4.50
2011,02,20,13,46,4.50
2011,02,20,13,47,4.60
2011,02,20,13,48,4.60
2011,02,20,13,49,4.60
2011,02,20,13,50,4.60
2011,02,20,13,51,4.60
2011,02,20,13,52,4.60
2011,02,20,13,53,4.60
2011,02,20,13,54,4.60
2011,02,20,13,55,4.60
2011,02,20,13,56,4.60
2011,02,20,13,57,4.60
2011,02,20,13,58,4.60
2011,02,20,13,59,4.60
2011,02,20,14,00,4.60
2011,02,20,14,01,4.60
2011,02,20,14,02,4.60
2011,02,20,14,03,4.60
2011,02,20,14,04,4.60
2011,02,20,14,05,4.60
2011,02,20,14,06,4.50
2011,02,20,14,07,4.50
2011,02,20,14,08,4.50
2011,02,20,14,09,4.50
2011,02,20,14,10,4.50
2011,02,20,14,11,4.50
2011,02,20,14,12,4.60
2011,02,20,14,13,4.60
2011,02,20,14,14,4.60
2011,02,20,14,15,4.60
2011,02,20,14,16,4.60
2011,02,20,14,17,4.60
2011,02,20,14,18,4.60
2011,02,20,14,19,4.60
2011,02,20,14,20,4.60
2011,02,20,14,21,4.60
2011,02,20,14,22,4.60
2011,02,20,14,23,4.50
2011,02,20,14,24,4.50
2011,02,20,14,25,4.50
2011,02,20,14,26,4.50
2011,02,20,14,27,4.60
2011,02,20,14,28,4.60
2011,02,20,14,29,4.60
2011,02,20,14,30,4.60
2011,02,20,14,31,4.60
2011,02,20,14,32,4.60
2011,02,20,14,33,4.60
2011,02,20,14,34,4.60
2011,02,20,14,35,4.60
2011,02,20,14,36,4.70
2011,02,20,14,37,4.70
2011,02,20,14,38,4.70
2011,02,20,14,39,4.70
2011,02,20,14,40,4.70
2011,02,20,14,41,4.70
2011,02,20,14,42,4.70
2011,02,20,14,43,4.70
2011,02,20,14,44,4.70
2011,02,20,14,45,4.70
2011,02,20,14,46,4.70
2011,02,20,14,47,4.70
2011,02,20,14,48,4.70
2011,02,20,14,49,4.70
2011,02,20,14,50,4.70
2011,02,20,14,51,4.70
2011,02,20,14,52,4.70
2011,02,20,14,53,4.70
2011,02,20,14,54,4.70
2011,02,20,14,55,4.70
2011,02,20,14,56,4.70
2011,02,20,14,57,4.70
2011,02,20,14,58,4.70
2011,02,20,14,59,4.70
2011,02,20,15,00,4.70
2011,02,20,15,01,4.60
2011,02,20,15,02,4.60
2011,02,20,15,03,4.60
2011,02,20,15,04,4.60
2011,02,20,15,05,4.60
2011,02,20,15,06,4.60
2011,02,20,15,07,4.60
2011,02,20,15,08,4.60
2011,02,20,15,09,4.60
2011,02,20,15,10,4.60
2011,02,20,15,11,4.60
2011,02,20,15,12,4.50
2011,02,20,15,13,4.50
2011,02,20,15,14,4.50
2011,02,20,15,15,4.50
2011,02,20,15,16,4.50
2011,02,20,15,17,4.50
2011,02,20,15,18,4.50
2011,02,20,15,19,4.50
2011,02,20,15,20,4.50
2011,02,20,15,21,4.50
2011,02,20,15,22,4.50
2011,02,20,15,23,4.50
2011,02,20,15,24,4.50
2011,02,20,15,25,4.50
2011,02,20,15,26,4.50
2011,02,20,15,27,4.50
2011,02,20,15,28,4.50
2011,02,20,15,29,4.50
2011,02,20,15,30,4.50
2011,02,20,15,31,4.40
2011,02,20,15,32,4.40
2011,02,20,15,33,4.40
2011,02,20,15,34,4.40
2011,02,20,15,35,4.40
2011,02,20,15,36,4.40
2011,02,20,15,37,4.40
2011,02,20,15,38,4.40
2011,02,20,15,39,4.50
2011,02,20,15,40,4.50
2011,02,20,15,41,4.50
2011,02,20,15,42,4.50
2011,02,20,15,43,4.50
2011,02,20,15,44,4.60
2011,02,20,15,45,4.60
2011,02,20,15,46,4.60
2011,02,20,15,47,4.60
2011,02,20,15,48,4.50
2011,02,20,15,49,4.50
2011,02,20,15,50,4.40
2011,02,20,15,51,4.40
2011,02,20,15,52,4.40
2011,02,20,15,53,4.40
2011,02,20,15,54,4.30
2011,02,20,15,55,4.30
2011,02,20,15,56,4.30
2011,02,20,15,57,4.30
2011,02,20,15,58,4.30
2011,02,20,15,59,4.20
2011,02,20,16,00,4.20
2011,02,20,16,01,4.20
2011,02,20,16,02,4.20
2011,02,20,16,03,4.20
2011,02,20,16,04,4.20
2011,02,20,16,05,4.10
2011,02,20,16,06,4.10
2011,02,20,16,07,4.10
2011,02,20,16,08,4.10
2011,02,20,16,09,4.00
2011,02,20,16,10,4.00
2011,02,20,16,11,4.00
2011,02,20,16,12,3.90
2011,02,20,16,13,3.90
2011,02,20,16,14,3.90
2011,02,20,16,15,3.80
2011,02,20,16,16,3.80
2011,02,20,16,17,3.80
2011,02,20,16,18,3.80
2011,02,20,16,19,3.80
2011,02,20,16,20,3.70
2011,02,20,16,21,3.70
2011,02,20,16,22,3.70
2011,02,20,16,23,3.70
2011,02,20,16,24,3.70
2011,02,20,16,25,3.60
2011,02,20,16,26,3.60
2011,02,20,16,27,3.60
2011,02,20,16,28,3.60
2011,02,20,16,29,3.60
2011,02,20,16,30,3.50
2011,02,20,16,31,3.50
2011,02,20,16,32,3.50
2011,02,20,16,33,3.40
2011,02,20,16,34,3.40
2011,02,20,16,35,3.40
2011,02,20,16,36,3.40
2011,02,20,16,37,3.40
2011,02,20,16,38,3.30
2011,02,20,16,39,3.30
2011,02,20,16,40,3.30
2011,02,20,16,41,3.30
2011,02,20,16,42,3.30
2011,02,20,16,43,3.30
2011,02,20,16,44,3.20
2011,02,20,16,45,3.20
2011,02,20,16,46,3.20
2011,02,20,16,47,3.20
2011,02,20,16,48,3.20
2011,02,20,16,49,3.20
2011,02,20,16,50,3.20
2011,02,20,16,51,3.20
2011,02,20,16,52,3.20
2011,02,20,16,53,3.10
2011,02,20,16,54,3.10
2011,02,20,16,55,3.10
2011,02,20,16,56,3.10
2011,02,20,16,57,3.10
2011,02,20,16,58,3.10
2011,02,20,16,59,3.00
2011,02,20,17,00,3.00
2011,02,20,17,01,3.00
2011,02,20,17,02,2.90
2011,02,20,17,03,2.90
2011,02,20,17,04,2.90
2011,02,20,17,05,2.90
2011,02,20,17,06,2.80
2011,02,20,17,07,2.80
2011,02,20,17,08,2.80
2011,02,20,17,09,2.80
2011,02,20,17,10,2.80
2011,02,20,17,11,2.70
2011,02,20,17,12,2.70
2011,02,20,17,13,2.70
2011,02,20,17,14,2.60
2011,02,20,17,15,2.60
2011,02,20,17,16,2.60
2011,02,20,17,17,2.60
2011,02,20,17,18,2.50
2011,02,20,17,19,2.50
2011,02,20,17,20,2.50
2011,02,20,17,21,2.40
2011,02,20,17,22,2.40
2011,02,20,17,23,2.40
2011,02,20,17,24,2.40
2011,02,20,17,25,2.30
2011,02,20,17,26,2.30
2011,02,20,17,27,2.30
2011,02,20,17,28,2.30
2011,02,20,17,29,2.20
2011,02,20,17,30,2.20
2011,02,20,17,31,2.20
2011,02,20,17,32,2.10
2011,02,20,17,33,2.10
2011,02,20,17,34,2.10
2011,02,20,17,35,2.00
2011,02,20,17,36,2.00
2011,02,20,17,37,2.00
2011,02,20,17,38,1.90
2011,02,20,17,39,1.90
2011,02,20,17,40,1.80
2011,02,20,17,41,1.80
2011,02,20,17,42,1.80
2011,02,20,17,43,1.80
2011,02,20,17,44,1.70
2011,02,20,17,45,1.70
2011,02,20,17,46,1.70
2011,02,20,17,47,1.60
2011,02,20,17,48,1.60
2011,02,20,17,49,1.60
2011,02,20,17,50,1.50
2011,02,20,17,51,1.50
2011,02,20,17,52,1.40
2011,02,20,17,53,1.40
2011,02,20,17,54,1.30
2011,02,20,17,55,1.30
2011,02,20,17,56,1.30
2011,02,20,17,57,1.30
2011,02,20,17,58,1.30
2011,02,20,17,59,1.20
2011,02,20,18,00,1.20
2011,02,20,18,01,1.20
2011,02,20,18,02,1.10
2011,02,20,18,03,1.10
2011,02,20,18,04,1.10
2011,02,20,18,05,1.10
2011,02,20,18,06,1.00
2011,02,20,18,07,1.00
2011,02,20,18,08,0.90
2011,02,20,18,09,0.90
2011,02,20,18,10,0.90
2011,02,20,18,11,0.90
2011,02,20,18,12,0.80
2011,02,20,18,13,0.80
2011,02,20,18,14,0.80
2011,02,20,18,15,0.80
2011,02,20,18,16,0.80
2011,02,20,18,17,0.80
2011,02,20,18,18,0.80
2011,02,20,18,19,0.70
2011,02,20,18,20,0.70
2011,02,20,18,21,0.70
2011,02,20,18,22,0.70
2011,02,20,18,23,0.70
2011,02,20,18,24,0.60
2011,02,20,18,25,0.60
2011,02,20,18,26,0.60
2011,02,20,18,27,0.60
2011,02,20,18,28,0.60
2011,02,20,18,29,0.60
2011,02,20,18,30,0.60
2011,02,20,18,31,0.60
2011,02,20,18,32,0.60
2011,02,20,18,33,0.50
2011,02,20,18,34,0.50
2011,02,20,18,35,0.50
2011,02,20,18,36,0.50
2011,02,20,18,37,0.50
2011,02,20,18,38,0.40
2011,02,20,18,39,0.40
2011,02,20,18,40,0.40
2011,02,20,18,41,0.40
2011,02,20,18,42,0.40
2011,02,20,18,43,0.40
2011,02,20,18,44,0.40
2011,02,20,18,45,0.40
2011,02,20,18,46,0.40
2011,02,20,18,47,0.30
2011,02,20,18,48,0.30
2011,02,20,18,49,0.30
2011,02,20,18,50,0.30
2011,02,20,18,51,0.30
2011,02,20,18,52,0.30
2011,02,20,18,53,0.30
2011,02,20,18,54,0.30
2011,02,20,18,55,0.30
2011,02,20,18,56,0.20
2011,02,20,18,57,0.20
2011,02,20,18,58,0.20
2011,02,20,18,59,0.20
2011,02,20,19,00,0.20
2011,02,20,19,01,0.20
2011,02,20,19,02,0.20
2011,02,20,19,03,0.20
2011,02,20,19,04,0.20
2011,02,20,19,05,0.20
2011,02,20,19,06,0.10
2011,02,20,19,07,0.10
2011,02,20,19,08,0.10
2011,02,20,19,09,0.10
2011,02,20,19,10,0.10
2011,02,20,19,11,0.10
2011,02,20,19,12,0.10
2011,02,20,19,13,0.10
2011,02,20,19,14,0.10
2011,02,20,19,15,0.10
2011,02,20,19,16,0.10
2011,02,20,19,17,0.10
2011,02,20,19,18,0.10
2011,02,20,19,19,0.10
2011,02,20,19,20,0.10
2011,02,20,19,21,0.10
2011,02,20,19,22,0.10
2011,02,20,19,23,0.10
2011,02,20,19,24,0.10
2011,02,20,19,25,0.10
2011,02,20,19,26,0.10
2011,02,20,19,27,0.00
2011,02,20,19,28,0.00
2011,02,20,19,29,0.00
2011,02,20,19,30,0.00
2011,02,20,19,31,0.00
2011,02,20,19,32,0.00
2011,02,20,19,33,0.00
2011,02,20,19,34,0.00
2011,02,20,19,35,0.00
2011,02,20,19,36,0.00
2011,02,20,19,37,0.00
2011,02,20,19,38,0.00
2011,02,20,19,39,0.00
2011,02,20,19,40,0.00
2011,02,20,19,41,-0.10
2011,02,20,19,42,-0.10
2011,02,20,19,43,-0.10
2011,02,20,19,44,-0.10
2011,02,20,19,45,-0.10
2011,02,20,19,46,-0.10
2011,02,20,19,47,-0.10
2011,02,20,19,48,-0.10
2011,02,20,19,49,-0.10
2011,02,20,19,50,-0.10
2011,02,20,19,51,-0.10
2011,02,20,19,52,-0.10
2011,02,20,19,53,-0.10
2011,02,20,19,54,-0.10
2011,02,20,19,55,-0.10
2011,02,20,19,56,0.00
2011,02,20,19,57,0.00
2011,02,20,19,58,0.00
2011,02,20,19,59,0.00
2011,02,20,20,00,0.00
2011,02,20,20,01,0.00
2011,02,20,20,02,0.00
2011,02,20,20,03,0.00
2011,02,20,20,04,0.00
2011,02,20,20,05,0.00
2011,02,20,20,06,0.00
2011,02,20,20,07,0.00
2011,02,20,20,08,0.00
2011,02,20,20,09,0.00
2011,02,20,20,10,0.10
2011,02,20,20,11,0.10
2011,02,20,20,12,0.10
2011,02,20,20,13,0.10
2011,02,20,20,14,0.10
2011,02,20,20,15,0.10
2011,02,20,20,16,0.10
2011,02,20,20,17,0.10
2011,02,20,20,18,0.10
2011,02,20,20,19,0.10
2011,02,20,20,20,0.10
2011,02,20,20,21,0.10
2011,02,20,20,22,0.10
2011,02,20,20,23,0.10
2011,02,20,20,24,0.10
2011,02,20,20,25,0.10
2011,02,20,20,26,0.10
2011,02,20,20,27,0.10
2011,02,20,20,28,0.10
2011,02,20,20,29,0.10
2011,02,20,20,30,0.10
2011,02,20,20,31,0.10
2011,02,20,20,32,0.10
2011,02,20,20,33,0.10
2011,02,20,20,34,0.10
2011,02,20,20,35,0.10
2011,02,20,20,36,0.10
2011,02,20,20,37,0.10
2011,02,20,20,38,0.10
2011,02,20,20,39,0.10
2011,02,20,20,40,0.10
2011,02,20,20,41,0.10
2011,02,20,20,42,0.10
2011,02,20,20,43,0.10
2011,02,20,20,44,0.10
2011,02,20,20,45,0.10
2011,02,20,20,46,0.10
2011,02,20,20,47,0.10
2011,02,20,20,48,0.10
2011,02,20,20,49,0.10
2011,02,20,20,50,0.10
2011,02,20,20,51,0.10
2011,02,20,20,52,0.10
2011,02,20,20,53,0.10
2011,02,20,20,54,0.10
2011,02,20,20,55,0.10
2011,02,20,20,56,0.10
2011,02,20,20,57,0.10
2011,02,20,20,58,0.10
2011,02,20,20,59,0.10
2011,02,20,21,00,0.10
2011,02,20,21,01,0.10
2011,02,20,21,02,0.10
2011,02,20,21,03,0.10
2011,02,20,21,04,0.10
2011,02,20,21,05,0.10
2011,02,20,21,06,0.10
2011,02,20,21,07,0.10
2011,02,20,21,08,0.10
2011,02,20,21,09,0.20
2011,02,20,21,10,0.20
2011,02,20,21,11,0.20
2011,02,20,21,12,0.20
2011,02,20,21,13,0.20
2011,02,20,21,14,0.20
2011,02,20,21,15,0.20
2011,02,20,21,16,0.20
2011,02,20,21,17,0.20
2011,02,20,21,18,0.20
2011,02,20,21,19,0.20
2011,02,20,21,20,0.20
2011,02,20,21,21,0.20
2011,02,20,21,22,0.20
2011,02,20,21,23,0.20
2011,02,20,21,24,0.20
2011,02,20,21,25,0.20
2011,02,20,21,26,0.20
2011,02,20,21,27,0.20
2011,02,20,21,28,0.20
2011,02,20,21,29,0.20
2011,02,20,21,30,0.20
2011,02,20,21,31,0.10
2011,02,20,21,32,0.10
2011,02,20,21,33,0.10
2011,02,20,21,34,0.10
2011,02,20,21,35,0.10
2011,02,20,21,36,0.10
2011,02,20,21,37,0.10
2011,02,20,21,38,0.10
2011,02,20,21,39,0.10
2011,02,20,21,40,0.10
2011,02,20,21,41,0.10
2011,02,20,21,42,0.10
2011,02,20,21,43,0.10
2011,02,20,21,44,0.10
2011,02,20,21,45,0.10
2011,02,20,21,46,0.10
2011,02,20,21,47,0.10
2011,02,20,21,48,0.10
2011,02,20,21,49,0.10
2011,02,20,21,50,0.10
2011,02,20,21,51,0.10
2011,02,20,21,52,0.10
2011,02,20,21,53,0.10
2011,02,20,21,54,0.10
2011,02,20,21,55,0.10
2011,02,20,21,56,0.10
2011,02,20,21,57,0.10
2011,02,20,21,58,0.00
2011,02,20,21,59,0.00
2011,02,20,22,00,0.00
2011,02,20,22,01,0.00
2011,02,20,22,02,0.00
2011,02,20,22,03,0.00
2011,02,20,22,04,0.00
2011,02,20,22,05,0.00
2011,02,20,22,06,0.00
2011,02,20,22,07,0.00
2011,02,20,22,08,0.00
2011,02,20,22,09,0.00
2011,02,20,22,10,0.00
2011,02,20,22,11,0.00
2011,02,20,22,12,0.00
2011,02,20,22,13,0.00
2011,02,20,22,14,0.00
2011,02,20,22,15,0.00
2011,02,20,22,16,0.00
2011,02,20,22,17,0.00
2011,02,20,22,18,0.00
2011,02,20,22,19,-0.10
2011,02,20,22,20,-0.10
2011,02,20,22,21,-0.10
2011,02,20,22,22,-0.10
2011,02,20,22,23,-0.10
2011,02,20,22,24,-0.10
2011,02,20,22,25,-0.10
2011,02,20,22,26,-0.10
2011,02,20,22,27,-0.10
2011,02,20,22,28,-0.10
2011,02,20,22,29,-0.10
2011,02,20,22,30,-0.10
2011,02,20,22,31,-0.10
2011,02,20,22,32,-0.10
2011,02,20,22,33,-0.10
2011,02,20,22,34,-0.10
2011,02,20,22,35,-0.10
2011,02,20,22,36,-0.10
2011,02,20,22,37,-0.10
2011,02,20,22,38,-0.10
2011,02,20,22,39,-0.10
2011,02,20,22,40,-0.10
2011,02,20,22,41,-0.10
2011,02,20,22,42,-0.10
2011,02,20,22,43,-0.10
2011,02,20,22,44,-0.10
2011,02,20,22,45,-0.10
2011,02,20,22,46,-0.10
2011,02,20,22,47,-0.10
2011,02,20,22,48,-0.10
2011,02,20,22,49,-0.10
2011,02,20,22,50,-0.10
2011,02,20,22,51,-0.10
2011,02,20,22,52,-0.10
2011,02,20,22,53,-0.10
2011,02,20,22,54,-0.10
2011,02,20,22,55,-0.10
2011,02,20,22,56,-0.10
2011,02,20,22,57,-0.10
2011,02,20,22,58,-0.10
2011,02,20,22,59,-0.10
2011,02,20,23,00,-0.10
2011,02,20,23,01,-0.10
2011,02,20,23,02,-0.10
2011,02,20,23,03,-0.10
2011,02,20,23,04,-0.10
2011,02,20,23,05,-0.10
2011,02,20,23,06,-0.10
2011,02,20,23,07,-0.10
2011,02,20,23,08,-0.10
2011,02,20,23,09,-0.10
2011,02,20,23,10,-0.10
2011,02,20,23,11,-0.10
2011,02,20,23,12,-0.10
2011,02,20,23,13,-0.10
